Flag for Spain Weather past 2 weeks in Alicante, Spain

Now
57 °F

Passing clouds.


Feels Like: 57 °F
Forecast: 51 / 72 °F
Wind: No wind

Location: Alicante / El Altet

Current Time: Mar 3, 2015 at 11:46:54 PM

Latest Report: Mar 3, 2015 at 11:00 PM


Visibility: 4 mi

Pressure: 30.27 "Hg

Humidity: 94%

Dew point: 55 °F

Location of AlicanteLocation

Historic Weather in Alicante — Graph

°F

Alicante temperature yesterday

Maximum temperature yesterday: 82 °F (at 2:00 PM)
Minimum temperature yesterday: 59 °F (at 3:00 AM)
Average temperature yesterday: 69 °F

Past Weeks' High & Low Weather Summary

 TemperatureHumidityPressure
High82 °F (Mar 2, 2:00 PM)94% (Mar 3, 7:00 PM)30.45 "Hg (Mar 3, 7:00 PM)
Low39 °F (Feb 21, 7:30 AM)18% (Feb 27, 5:00 PM)29.62 "Hg (Feb 21, 5:30 PM)
Average58 °F55%30.13 "Hg
* Reported Feb 16 10:00 PM — Mar 3 10:30 PM, Alicante, Weather by CustomWeather, © 2015

Note: Actual official high and low records may vary slightly from our data, if they occured in-between our weather recording intervals... More about our weather records

Advertising

Alicante weather history for previous 24 hours

 ConditionsComfort  
Time TempWeatherWind HumidityBarometerVisibility
10:30 PM
Tue, Mar 3
57 °FPassing clouds.No wind94%30.27 "Hg4 mi
10:00 PM57 °FPassing clouds.1 mph94%30.27 "Hg4 mi
9:30 PM57 °FPassing clouds.1 mph94%30.27 "Hg4 mi
8:30 PM57 °FPassing clouds.1 mph94%30.27 "Hg4 mi
8:00 PM57 °FPassing clouds.3 mph94%30.24 "Hg4 mi
7:30 PM57 °FPassing clouds.5 mph94%30.24 "Hg4 mi
7:00 PM57 °FPassing clouds.7 mph94%30.24 "Hg4 mi
6:30 PM59 °FPartly sunny.5 mph88%30.24 "Hg4 mi
6:00 PM59 °FPartly sunny.5 mph88%30.21 "Hg4 mi
5:30 PM59 °FPartly sunny.7 mph88%30.21 "Hg4 mi
5:00 PM59 °FSleet. Fog.7 mph88%30.21 "HgN/A
4:30 PM61 °FSleet. Partly sunny.7 mph83%30.21 "HgN/A
4:00 PM61 °FSleet. Scattered clouds.6 mph88%30.21 "HgN/A
3:30 PM61 °FSleet. Light fog.7 mph83%30.21 "HgN/A
3:00 PM63 °FFog.8 mph83%30.21 "HgN/A
2:30 PM64 °FPassing clouds.9 mph73%30.21 "HgN/A
2:00 PM66 °FPassing clouds.9 mph68%30.21 "HgN/A
1:30 PM66 °FPassing clouds.7 mph68%30.24 "HgN/A
1:00 PM64 °FPassing clouds.7 mph73%30.24 "HgN/A
12:30 PM64 °FSunny.8 mph73%30.27 "Hg10 mi
12:00 PM66 °FPassing clouds.10 mph64%30.27 "HgN/A
11:30 AM64 °FSunny.9 mph68%30.24 "Hg10 mi
11:00 AM64 °FPassing clouds.9 mph73%30.24 "HgN/A
10:30 AM63 °FPassing clouds.9 mph77%30.24 "HgN/A
10:00 AM61 °FPassing clouds.9 mph83%30.24 "HgN/A
9:30 AM61 °FSunny.9 mph83%30.24 "Hg10 mi
9:00 AM59 °FSunny.3 mph82%30.21 "Hg10 mi
8:30 AM55 °FSunny.No wind82%30.21 "Hg10 mi
8:00 AM55 °FSunny.No wind82%30.18 "Hg10 mi
7:30 AM55 °FSunny.No wind82%30.18 "Hg10 mi
7:00 AM54 °FClear.No wind82%30.18 "Hg10 mi
6:30 AM55 °FClear.No wind82%30.18 "Hg10 mi
6:00 AM54 °FClear.1 mph82%30.18 "Hg10 mi
5:30 AM55 °FClear.No wind88%30.18 "Hg10 mi
5:00 AM57 °FClear.3 mph88%30.18 "Hg10 mi
4:30 AM57 °FPassing clouds.3 mph72%30.15 "HgN/A
4:00 AM59 °FClear.1 mph63%30.15 "Hg10 mi
3:30 AM61 °FClear.6 mph59%30.18 "Hg10 mi
3:00 AM64 °FPassing clouds.6 mph49%30.18 "HgN/A
2:30 AM64 °FClear.No wind49%30.18 "Hg10 mi
2:00 AM66 °FClear.No wind46%30.18 "Hg10 mi
1:30 AM68 °FClear.6 mph43%30.18 "Hg10 mi
1:00 AM68 °FClear.8 mph40%30.18 "Hg10 mi
12:30 AM72 °FClear.14 mph36%30.18 "Hg10 mi
12:00 AM64 °FPassing clouds.8 mph49%30.18 "HgN/A
11:30 PM
Mon, Mar 2
64 °FPassing clouds.3 mph46%30.18 "HgN/A
11:00 PM63 °FClear.7 mph56%30.18 "Hg10 mi
Weather by CustomWeather, © 2015

See weather overviewHow to use our weather pages